Defiance, OH

8:45 AM EDT on April 27, 2017 (GMT -0400)
Defiance Memorial

Weather History for KDFI - December, 2013

Change the Weather History Date:

Saturday, December 7, 2013

  Actual Average Record
Temperature  
Mean Temperature 22 °F -  
Max Temperature 28 °F 39 °F 63 °F (1956)
Min Temperature 15 °F 22 °F -2 °F (1977)
Degree Days  
Heating Degree Days 44    
Moisture  
Dew Point 11 °F    
Average Humidity 62    
Maximum Humidity 80    
Minimum Humidity 47    
Precipitation  
Precipitation 0.00 in - - ()
Sea Level Pressure  
Sea Level Pressure 30.57 in    
Wind  
Wind Speed 7 mph (NW)    
Max Wind Speed 12 mph    
Max Gust Speed -    
Visibility 10 miles    
Events      
Averages and records for this station are not official NWS values.
T = Trace of Precipitation, MM = Missing Value Source: NWS Daily Summary

Daily Weather History Graph

Daily Weather History Graph

Search for Another Location

Airport or City:

Trip Planner

Search our weather history database for the weather conditions in past years. The results will help you decide how hot, cold, wet, or windy it might be!

Date:

Astronomy

Dec. 07, 2013 Rise Set
Actual Time 7:50 AM EST 5:08 PM EST
Civil Twilight 7:19 AM EST 5:39 PM EST
Nautical Twilight 6:44 AM EST 6:13 PM EST
Astronomical Twilight 6:11 AM EST 6:47 PM EST
Moon 11:32 AM EST (12/7) 10:51 PM EST (12/7)
Length of Visible Light 10h 20m
Length of Day
9h 17m
Waxing Crescent, 29% of the Moon is Illuminated
Dec 7
Waxing Crescent
Dec 9
First Quarter
Dec 17
Full
Dec 25
Last Quarter
Jan 1
New

Hourly Weather History & Observations

Time (EST) Temp. Windchill Dew Point Humidity Pressure Visibility Wind Dir Wind Speed Gust Speed Precip Events Conditions
12:53 AM 25.0 °F 14.8 °F 12.9 °F 60% 30.45 in 10.0 mi NNW 10.4 mph - N/A   Overcast
1:53 AM 25.0 °F 15.5 °F 12.9 °F 60% 30.45 in 10.0 mi NNW 9.2 mph - N/A   Overcast
2:53 AM 24.1 °F 14.4 °F 12.0 °F 60% 30.48 in 10.0 mi NW 9.2 mph - N/A   Overcast
3:02 AM 24.8 °F 14.6 °F 12.2 °F 59% 30.45 in 10.0 mi NNW 10.4 mph - N/A   Overcast
3:53 AM 23.0 °F 18.4 °F 12.0 °F 63% 30.49 in 10.0 mi Variable 3.5 mph - N/A   Mostly Cloudy
4:53 AM 24.1 °F - 12.9 °F 62% 30.51 in 10.0 mi Calm Calm - N/A   Overcast
5:53 AM 24.1 °F 19.7 °F 14.0 °F 65% 30.53 in 10.0 mi Variable 3.5 mph - N/A   Overcast
6:15 AM 24.8 °F 16.1 °F 15.8 °F 69% 30.50 in 10.0 mi NW 8.1 mph - N/A   Overcast
6:53 AM 24.1 °F - 15.1 °F 69% 30.55 in 10.0 mi Calm Calm - N/A   Overcast
7:04 AM 24.8 °F 19.1 °F 12.2 °F 59% 30.52 in 10.0 mi NW 4.6 mph - N/A   Overcast
7:13 AM 24.8 °F 16.1 °F 14.0 °F 64% 30.52 in 10.0 mi NNW 8.1 mph - N/A   Overcast
7:53 AM 23.0 °F 11.7 °F 10.0 °F 58% 30.57 in 10.0 mi NNW 11.5 mph - N/A   Overcast
8:53 AM 23.0 °F 15.8 °F 10.9 °F 60% 30.59 in 10.0 mi NW 5.8 mph - N/A   Overcast
9:53 AM 24.1 °F 13.7 °F 10.9 °F 57% 30.61 in 10.0 mi NW 10.4 mph - N/A   Overcast
10:14 AM 23.0 °F 15.8 °F 12.2 °F 63% 30.58 in 10.0 mi NW 5.8 mph - N/A   Overcast
10:53 AM 24.1 °F 14.4 °F 12.9 °F 62% 30.63 in 10.0 mi NNW 9.2 mph - N/A   Mostly Cloudy
11:53 AM 24.1 °F 14.4 °F 10.0 °F 55% 30.63 in 10.0 mi NNW 9.2 mph - N/A   Mostly Cloudy
12:01 PM 26.6 °F 16.2 °F 10.4 °F 51% 30.59 in 10.0 mi NW 11.5 mph - N/A   Scattered Clouds
12:53 PM 27.0 °F 21.6 °F 10.9 °F 51% 30.61 in 10.0 mi NW 4.6 mph - N/A   Partly Cloudy
1:53 PM 27.0 °F 19.5 °F 10.9 °F 51% 30.60 in 10.0 mi Variable 6.9 mph - N/A   Partly Cloudy
2:53 PM 28.0 °F 20.8 °F 10.0 °F 47% 30.58 in 10.0 mi Variable 6.9 mph - N/A   Partly Cloudy
3:53 PM 26.1 °F 20.5 °F 10.0 °F 51% 30.60 in 10.0 mi Variable 4.6 mph - N/A   Partly Cloudy
4:53 PM 24.1 °F 16.0 °F 10.9 °F 57% 30.61 in 10.0 mi NW 6.9 mph - N/A   Clear
5:53 PM 21.0 °F 12.4 °F 10.0 °F 63% 30.61 in 10.0 mi NNW 6.9 mph - N/A   Clear
6:53 PM 19.9 °F 11.1 °F 10.9 °F 68% 30.62 in 10.0 mi NNW 6.9 mph - N/A   Clear
7:53 PM 19.0 °F 13.9 °F 10.0 °F 68% 30.65 in 10.0 mi NNW 3.5 mph - N/A   Clear
8:53 PM 18.0 °F 12.7 °F 9.0 °F 68% 30.65 in 10.0 mi NNW 3.5 mph - N/A   Clear
9:53 PM 18.0 °F - 10.0 °F 71% 30.64 in 10.0 mi Calm Calm - N/A   Clear
10:53 PM 15.1 °F - 8.1 °F 74% 30.63 in 10.0 mi Calm Calm - N/A   Clear
11:53 PM 15.1 °F - 10.0 °F 80% 30.61 in 10.0 mi Calm Calm - N/A   Clear